Flag for Tonga Weather past 2 weeks in Nukualofa, Tonga

Now
72 °F

Passing clouds.


Feels Like: 72 °F
Forecast: 70 / 83 °F
Wind: No wind

Location: Fua'Amotu

Current Time: Jan 27, 2015 at 3:28:41 AM

Latest Report: Jan 27, 2015 at 3:00 AM


Visibility: N/A

Pressure: 29.65 "Hg

Humidity: 78%

Dew point: 64 °F

Location of NukualofaLocation

Historic Weather in Nukualofa — Graph

°F

Nukualofa temperature yesterday

Maximum temperature yesterday: 82 °F (at 2:00 PM)
Minimum temperature yesterday: 73 °F (at 12:00 AM)
Average temperature yesterday: 77 °F

Past Weeks' High & Low Weather Summary

 TemperatureHumidityPressure
High90 °F (Jan 16, 4:00 PM)100% (Jan 12, 11:00 PM)29.95 "Hg (Jan 12, 11:00 PM)
Low66 °F (Jan 19, 4:00 AM)48% (Jan 26, 3:00 PM)29.62 "Hg (Jan 26, 5:00 PM)
Average79 °F79%29.84 "Hg
* Reported Jan 12 2:00 AM — Jan 27 2:00 AM, Nukualofa, Weather by CustomWeather, © 2014

Note: Actual official high and low records may vary slightly from our data, if they occured in-between our weather recording intervals... More about our weather records

Advertising

Nukualofa weather history for previous 24 hours

 ConditionsComfort  
Time TempWeatherWind HumidityBarometerVisibility
2:00 AM
Jan 27
72 °FPassing clouds.No wind78%29.68 "HgN/A
1:00 AM72 °FPassing clouds.No wind78%29.68 "HgN/A
12:00 AM72 °FPassing clouds.No wind83%29.71 "HgN/A
11:00 PM
Jan 26
73 °FPassing clouds.No wind78%29.71 "HgN/A
10:00 PM73 °FPassing clouds.No wind74%29.68 "HgN/A
9:00 PM73 °FPassing clouds.No wind74%29.68 "HgN/A
8:00 PM75 °FPassing clouds.No wind69%29.68 "HgN/A
7:00 PM79 °FPassing clouds.No wind58%29.65 "HgN/A
6:00 PM81 °FPassing clouds.7 mph51%29.65 "HgN/A
5:00 PM81 °FPassing clouds.7 mph48%29.62 "HgN/A
4:00 PM81 °FPassing clouds.7 mph51%29.65 "HgN/A
3:00 PM82 °FPassing clouds.9 mph48%29.65 "HgN/A
2:00 PM82 °FPassing clouds.8 mph51%29.65 "HgN/A
1:00 PM79 °FPassing clouds.6 mph58%29.68 "HgN/A
12:00 PM81 °FPassing clouds.9 mph58%29.68 "HgN/A
11:00 AM79 °FPassing clouds.9 mph61%29.68 "HgN/A
10:00 AM79 °FPassing clouds.8 mph65%29.68 "HgN/A
9:00 AM77 °FScattered clouds.5 mph69%29.68 "HgN/A
8:00 AM77 °FScattered clouds.6 mph74%29.71 "HgN/A
7:00 AM73 °FPassing clouds.No wind78%29.68 "HgN/A
6:00 AM73 °FScattered clouds.No wind78%29.68 "HgN/A
5:00 AM73 °FPassing clouds.No wind83%29.68 "HgN/A
4:00 AM73 °FPassing clouds.No wind83%29.68 "HgN/A
3:00 AM73 °FPassing clouds.No wind83%29.68 "HgN/A
Weather by CustomWeather, © 2014

See weather overviewHow to use our weather pages